NOAA 16 DEB, 41427

Orbit data source: Space-Track

NOAA 16 DEB, 41427 is space debris in SSO originally from a launch on Thu, 21 Sep 2000 UTC launched from the Air Force Western Test Range (AFWTR). Debris objects in space refer to the collection of defunct objects orbiting the Earth. Examples of debris include non-operational satellites, rocket bodies, and fragments generated from explosions, collisions, or faulty payload assembly.

Loading next visibility...
Identifier
41427, 2000-055LG
Orbit
SSO
Country
Flag of USUS
Related business
Manufacturer
Unknown
Mission
Spacecraft
Bus & Motor
Unknown
Mass
Unknown
Launch date (UTC)
2000-09-21 (26 years ago)
Launch vehicle
Unknown
Launch site
Air Force Western Test Range (AFWTR)
Object type
Payload
Rocket body
Debris
Shape & HBR
Unknown shape, 0.1 m
Radar Cross Section
Medium (>0.1 m² and <1 m²)

Expand to show TLE details & history
Last TLE update: 2 days ago

TLE from 2 days ago
0 NOAA 16 DEB
1 41427U 00055LG  26227.08361428  .00007242  00000-0  19500-2 0  9991
2 41427  98.9213 354.8471 0018400 326.7007  33.3025 14.48179851540296
Epoch: 2026-08-15T02:00Z
TLE epoch observation values (Epoch: 2026-08-15T02:00:24.273Z)
Latitude
-0.00009°
Longitude
1.2464°
Altitude
723.617 km
Speed
7.499 km/s
True Right ascension
23h 39m 23s
True Declination
0° 00' 00"
Sunlit
Object was in full shadow at epoch
Visualization orbit readout
Latitude
Unknown
Longitude
Unknown
Altitude
Unknown
Speed
Unknown
Apparent Right ascension
Unknown
Apparent Declination
Unknown
Sunlit
N/A
Visualization observer readout
Local Sidereal Time
16:53:41
Azimuth
Unknown
Elevation
Unknown
Doppler factor
Unknown
Orbital elements
Apogee altitude
741.808 km
Perigee altitude
715.654 km
Semi-major axis
7,106.868 km
Eccentricity
0.00184
Inclination
98.9213°
RAAN
354.8471°
Arg. of periapsis
326.7007°
True anomaly
33.41849°
Mean anomaly
33.3025°
Eccentric anomaly
33.36047°
Mean motion
3.62265 °/min
Orbital period
99.37 mins
BSTAR
0.00195
Loading maneuver chart data...
Computing Atmospheric mass density...
Loading historical data...
Loading historical data...
Loading historical data...
Loading historical data...
Loading historical data...
Loading historical data...
Loading historical data...

Documentation

Showing up to 5 results
|